Weather History for Vernal, UT

Change the Weather History Date:

Thursday, October 18, 2012

  Actual Average Record
Temperature  
Mean Temperature 46 °F 48 °F  
Max Temperature 61 °F 60 °F 80 °F (1950)
Min Temperature 30 °F 35 °F 16 °F (1948)
Degree Days  
Heating Degree Days 19 18  
Month to date heating degree days 247 258  
Since 1 July heating degree days 317 440  
Cooling Degree Days 0 0  
Month to date cooling degree days 0 0  
Year to date cooling degree days 810 511  
Moisture  
Dew Point 18 °F    
Average Humidity 39    
Maximum Humidity 61    
Minimum Humidity 16    
Precipitation  
Precipitation 0.00 in 0.05 in 1.10 in (1949)
Month to date precipitation 0.48 0.86  
Year to date precipitation 3.43 7.55  
Sea Level Pressure  
Sea Level Pressure 30.20 in    
Wind  
Wind Speed 4 mph (West)    
Max Wind Speed 8 mph    
Max Gust Speed 10 mph    
Visibility 10 miles    
Events      
T = Trace of Precipitation, MM = Missing Value Source: NWS Daily Summary

Daily Weather History Graph

Daily Weather History Graph

Search for Another Location

Airport:

Trip Planner

Search our weather history database for the weather conditions in past years. The results will help you decide how hot, cold, wet, or windy it might be!

Date:

Astronomy

Oct. 18, 2012 Rise Set
Actual Time 7:32 AM MDT 6:32 PM MDT
Civil Twilight 7:05 AM MDT 7:00 PM MDT
Nautical Twilight 6:33 AM MDT 7:31 PM MDT
Astronomical Twilight 6:01 AM MDT 8:03 PM MDT
Moon 11:18 AM MDT (10/18) 9:09 PM MDT (10/18)
Length of Visible Light 11h 55m
Length of Day
10h 59m
Waxing Crescent, 15% of the Moon is Illuminated
Oct 18
Waxing Crescent
Oct 21
First Quarter
Oct 29
Full
Nov 6
Last Quarter
Nov 13
New

Hourly Weather History & Observations

Time (MDT) Temp. Windchill Dew Point Humidity Pressure Visibility Wind Dir Wind Speed Gust Speed Precip Events Conditions
12:53 AM 36.0 °F 32.1 °F 21.0 °F 55% 30.14 in 10.0 mi West 4.6 mph - N/A   Clear
1:53 AM 34.0 °F 28.8 °F 21.0 °F 59% 30.16 in 10.0 mi WNW 5.8 mph - N/A   Clear
2:53 AM 34.0 °F 29.8 °F 19.9 °F 56% 30.17 in 10.0 mi NW 4.6 mph - N/A   Clear
3:53 AM 34.0 °F 31.0 °F 19.9 °F 56% 30.17 in 10.0 mi WNW 3.5 mph - N/A   Clear
4:53 AM 33.1 °F 28.7 °F 19.9 °F 59% 30.19 in 10.0 mi WNW 4.6 mph - N/A   Clear
5:53 AM 33.1 °F - 19.0 °F 56% 30.21 in 10.0 mi Calm Calm - N/A   Clear
6:53 AM 33.1 °F 28.7 °F 18.0 °F 54% 30.23 in 10.0 mi WSW 4.6 mph - N/A   Clear
7:53 AM 34.0 °F 28.8 °F 17.1 °F 50% 30.26 in 10.0 mi West 5.8 mph - N/A   Clear
8:53 AM 39.9 °F 37.8 °F 19.0 °F 43% 30.27 in 10.0 mi West 3.5 mph - N/A   Clear
9:53 AM 46.9 °F - 18.0 °F 32% 30.26 in 10.0 mi SSE 3.5 mph - N/A   Clear
10:53 AM 50.0 °F - 15.1 °F 25% 30.26 in 10.0 mi Variable 3.5 mph - N/A   Clear
11:53 AM 52.0 °F - 10.9 °F 19% 30.26 in 10.0 mi Variable 3.5 mph - N/A   Clear
12:53 PM 54.0 °F - 14.0 °F 21% 30.24 in 10.0 mi SSE 5.8 mph - N/A   Clear
1:53 PM 55.9 °F - 15.1 °F 20% 30.22 in 10.0 mi Variable 3.5 mph - N/A   Clear
2:53 PM 57.0 °F - 12.9 °F 18% 30.19 in 10.0 mi Calm Calm - N/A   Clear
3:53 PM 60.1 °F - 16.0 °F 18% 30.17 in 10.0 mi Variable 3.5 mph - N/A   Clear
4:53 PM 60.1 °F - 14.0 °F 16% 30.15 in 10.0 mi Calm Calm - N/A   Clear
5:53 PM 59.0 °F - 16.0 °F 19% 30.16 in 10.0 mi Calm Calm - N/A   Clear
6:53 PM 52.0 °F - 19.9 °F 28% 30.18 in 10.0 mi WSW 3.5 mph - N/A   Clear
8:53 PM 46.0 °F 43.9 °F 21.9 °F 39% 30.19 in 10.0 mi NW 4.6 mph - N/A   Clear
9:53 PM 44.1 °F 40.8 °F 21.9 °F 42% 30.17 in 10.0 mi WNW 5.8 mph - N/A   Clear
10:53 PM 43.0 °F 40.3 °F 23.0 °F 45% 30.16 in 10.0 mi WNW 4.6 mph - N/A   Clear
11:53 PM 41.0 °F 37.1 °F 24.1 °F 51% 30.15 in 10.0 mi WNW 5.8 mph - N/A   Clear